When you browse on this site, cookies collect data to enhance your experience and personalize the content and advertising you see.
Visit our Privacy Policy to learn more. By continuing to use the site, you agree to this use of cookies and data.
  • In United Kingdom
  • List of Countries
  • For 7 days
  • Water Temperature
  • Weather Map
  • Weather Widgets
  • user-avatar
    Login

    Hourly Weather Calinesti

    Today, 22 January, Wednesday

    Time Temperature Precipitation Wind Pressure Humidity
    00:00 -1°C° 0 mm 2 mps 753 mmHg 61%
    01:00 -1°C° 0 mm 2 mps 753 mmHg 61%
    02:00 -1°C° 0 mm 2 mps 752 mmHg 60%
    03:00 -1°C° 0 mm 2 mps 752 mmHg 59%
    04:00 -1°C° 0 mm 2 mps 751 mmHg 59%
    05:00 -1°C° 0 mm 2 mps 750 mmHg 59%
    06:00 -1°C° 0 mm 2 mps 750 mmHg 60%
    07:00 -1°C° 0 mm 2 mps 749 mmHg 61%
    08:00 -2°C° 0 mm 3 mps 749 mmHg 62%
    09:00 +1°C° 0 mm 2 mps 749 mmHg 56%
    10:00 +3°C° 0 mm 2 mps 748 mmHg 50%
    11:00 +4°C° 0 mm 2 mps 748 mmHg 44%
    12:00 +4°C° 0 mm 3 mps 747 mmHg 44%
    13:00 +5°C° 0 mm 3 mps 746 mmHg 44%
    14:00 +5°C° 0 mm 4 mps 746 mmHg 44%
    15:00 +4°C° 0 mm 3 mps 745 mmHg 48%
    16:00 +3°C° 0 mm 3 mps 744 mmHg 52%
    17:00 +2°C° 0 mm 3 mps 743 mmHg 56%
    18:00 +2°C° 0 mm 3 mps 743 mmHg 56%
    19:00 +1°C° 0 mm 3 mps 743 mmHg 56%
    20:00 +1°C° 0 mm 3 mps 743 mmHg 57%
    21:00 +1°C° 0 mm 3 mps 743 mmHg 54%
    22:00 +1°C° 0 mm 3 mps 743 mmHg 52%
    23:00 +1°C° 0 mm 3 mps 743 mmHg 50%

    Tomorrow, 23 January, Thursday

    Time Temperature Precipitation Wind Pressure Humidity
    00:00 0°C° 0 mm 3 mps 743 mmHg 53%
    01:00 0°C° 0 mm 3 mps 744 mmHg 56%
    02:00 0°C° 0 mm 3 mps 745 mmHg 58%
    03:00 +1°C° 0 mm 2 mps 745 mmHg 60%
    04:00 -1°C° 0 mm 2 mps 746 mmHg 62%
    05:00 -1°C° 0 mm 2 mps 746 mmHg 64%
    06:00 -1°C° 0 mm 2 mps 747 mmHg 63%
    07:00 -1°C° 0 mm 3 mps 748 mmHg 63%
    08:00 -1°C° 0 mm 3 mps 748 mmHg 63%
    09:00 0°C° 0 mm 3 mps 749 mmHg 56%
    10:00 +2°C° 0 mm 3 mps 749 mmHg 49%
    11:00 +3°C° 0 mm 3 mps 750 mmHg 43%
    12:00 +4°C° 0 mm 3 mps 750 mmHg 40%
    13:00 +5°C° 0 mm 3 mps 750 mmHg 37%
    14:00 +6°C° 0 mm 2 mps 750 mmHg 34%
    15:00 +5°C° 0 mm 2 mps 750 mmHg 37%
    16:00 +4°C° 0 mm 2 mps 750 mmHg 40%
    17:00 +4°C° 0 mm 1 mps 750 mmHg 43%
    18:00 +3°C° 0 mm 2 mps 750 mmHg 47%
    19:00 +2°C° 0 mm 2 mps 750 mmHg 51%
    20:00 +1°C° 0 mm 2 mps 751 mmHg 55%
    21:00 -1°C° 0 mm 2 mps 751 mmHg 54%
    22:00 +1°C° 0 mm 1 mps 751 mmHg 53%
    23:00 +1°C° 0 mm 1 mps 751 mmHg 53%

    Day after tomorrow, 24 January, Friday

    Time Temperature Precipitation Wind Pressure Humidity
    00:00 0°C° 0 mm 1 mps 751 mmHg 52%
    01:00 0°C° 0 mm 1 mps 751 mmHg 52%
    02:00 0°C° 0 mm 1 mps 751 mmHg 51%
    03:00 0°C° 0 mm 1 mps 751 mmHg 52%
    04:00 0°C° 0 mm 1 mps 751 mmHg 52%
    05:00 0°C° 0 mm 1 mps 750 mmHg 53%
    06:00 -1°C° 0 mm 1 mps 750 mmHg 54%
    07:00 -2°C° 0 mm 0 mps 750 mmHg 56%
    08:00 -2°C° 0 mm 0 mps 750 mmHg 58%
    09:00 -1°C° 0 mm 0 mps 750 mmHg 53%
    10:00 +2°C° 0 mm 1 mps 750 mmHg 48%
    11:00 +3°C° 0 mm 1 mps 750 mmHg 43%
    12:00 +4°C° 0 mm 1 mps 750 mmHg 41%
    13:00 +4°C° 0 mm 2 mps 749 mmHg 39%
    14:00 +5°C° 0 mm 2 mps 749 mmHg 37%
    15:00 +4°C° 0 mm 2 mps 748 mmHg 41%
    16:00 +3°C° 0 mm 2 mps 748 mmHg 45%
    17:00 +2°C° 0 mm 2 mps 747 mmHg 49%
    18:00 +2°C° 0 mm 2 mps 747 mmHg 52%
    19:00 +1°C° 0 mm 2 mps 747 mmHg 55%
    20:00 -1°C° 0 mm 2 mps 747 mmHg 58%
    21:00 -1°C° 0 mm 2 mps 747 mmHg 59%
    22:00 -1°C° 0 mm 2 mps 747 mmHg 60%
    23:00 -1°C° 0 mm 2 mps 746 mmHg 61%

    25 January, Saturday

    Time Temperature Precipitation Wind Pressure Humidity
    00:00 -2°C° 0 mm 2 mps 746 mmHg 62%
    01:00 -2°C° 0 mm 2 mps 745 mmHg 62%
    02:00 -2°C° 0 mm 2 mps 745 mmHg 63%
    03:00 -2°C° 0 mm 2 mps 745 mmHg 63%
    04:00 -2°C° 0 mm 2 mps 744 mmHg 62%
    05:00 -2°C° 0 mm 3 mps 744 mmHg 62%
    06:00 -2°C° 0 mm 2 mps 744 mmHg 61%
    07:00 -2°C° 0 mm 2 mps 744 mmHg 60%
    08:00 -2°C° 0 mm 2 mps 744 mmHg 60%
    09:00 +1°C° 0 mm 2 mps 744 mmHg 53%
    10:00 +3°C° 0 mm 2 mps 744 mmHg 47%
    11:00 +5°C° 0 mm 2 mps 744 mmHg 40%
    12:00 +7°C° 0 mm 2 mps 744 mmHg 39%
    13:00 +8°C° 0 mm 2 mps 744 mmHg 38%
    14:00 +9°C° 0 mm 3 mps 743 mmHg 37%
    15:00 +8°C° 0 mm 2 mps 743 mmHg 41%
    16:00 +7°C° 0 mm 2 mps 743 mmHg 45%
    17:00 +6°C° 0 mm 2 mps 743 mmHg 49%
    18:00 +5°C° 0 mm 2 mps 744 mmHg 53%
    19:00 +5°C° 0 mm 1 mps 744 mmHg 56%
    20:00 +5°C° 0 mm 1 mps 744 mmHg 60%
    21:00 +4°C° 0 mm 1 mps 744 mmHg 62%
    22:00 +4°C° 0 mm 1 mps 744 mmHg 65%
    23:00 +4°C° 0 mm 1 mps 744 mmHg 68%

    26 January, Sunday

    Time Temperature Precipitation Wind Pressure Humidity
    00:00 +4°C° 0 mm 1 mps 744 mmHg 70%
    01:00 +4°C° 0 mm 1 mps 744 mmHg 72%
    02:00 +3°C° 0 mm 1 mps 744 mmHg 74%
    03:00 +3°C° 0 mm 1 mps 744 mmHg 75%
    04:00 +3°C° 0 mm 1 mps 744 mmHg 77%
    05:00 +3°C° 0 mm 1 mps 744 mmHg 78%
    06:00 +3°C° 0 mm 1 mps 744 mmHg 78%
    07:00 +2°C° 0 mm 0 mps 744 mmHg 78%
    08:00 +2°C° 0 mm 0 mps 744 mmHg 78%
    09:00 +4°C° 0 mm 0 mps 744 mmHg 72%
    10:00 +5°C° 0 mm 0 mps 745 mmHg 66%
    11:00 +7°C° 0 mm 0 mps 745 mmHg 61%
    12:00 +7°C° 0 mm 0 mps 745 mmHg 58%
    13:00 +9°C° 0 mm 1 mps 744 mmHg 55%
    14:00 +10°C° 0 mm 1 mps 744 mmHg 52%
    15:00 +9°C° 0 mm 1 mps 744 mmHg 55%
    16:00 +8°C° 0 mm 1 mps 744 mmHg 58%
    17:00 +7°C° 0 mm 1 mps 744 mmHg 62%
    18:00 +7°C° 0 mm 1 mps 744 mmHg 64%
    19:00 +6°C° 0 mm 1 mps 744 mmHg 66%
    20:00 +6°C° 0 mm 1 mps 744 mmHg 68%
    21:00 +5°C° 0 mm 1 mps 744 mmHg 69%
    22:00 +4°C° 0 mm 2 mps 744 mmHg 71%
    23:00 +4°C° 0 mm 2 mps 744 mmHg 72%

    27 January, Monday

    Time Temperature Precipitation Wind Pressure Humidity
    00:00 +4°C° 0 mm 2 mps 744 mmHg 73%
    01:00 +4°C° 0 mm 2 mps 744 mmHg 74%
    02:00 +4°C° 0 mm 2 mps 743 mmHg 75%
    03:00 +4°C° 0 mm 2 mps 743 mmHg 76%
    04:00 +4°C° 0 mm 2 mps 743 mmHg 76%
    05:00 +3°C° 0 mm 2 mps 743 mmHg 77%
    06:00 +4°C° 0 mm 1 mps 743 mmHg 77%
    07:00 +4°C° 0 mm 1 mps 743 mmHg 77%
    08:00 +4°C° 0 mm 1 mps 743 mmHg 78%
    09:00 +5°C° 0 mm 1 mps 743 mmHg 74%
    10:00 +7°C° 0 mm 1 mps 743 mmHg 70%
    11:00 +8°C° 0 mm 1 mps 744 mmHg 66%
    12:00 +8°C° 0 mm 1 mps 743 mmHg 65%
    13:00 +9°C° 0 mm 1 mps 743 mmHg 65%
    14:00 +9°C° 0 mm 1 mps 743 mmHg 64%
    15:00 +9°C° 0 mm 1 mps 743 mmHg 69%
    16:00 +8°C° 0 mm 1 mps 743 mmHg 74%
    17:00 +7°C° 0 mm 2 mps 743 mmHg 78%
    18:00 +6°C° 0 mm 2 mps 743 mmHg 81%
    19:00 +6°C° 0 mm 2 mps 744 mmHg 83%
    20:00 +6°C° 0 mm 2 mps 744 mmHg 86%
    21:00 +7°C° 0 mm 1 mps 744 mmHg 86%
    22:00 +6°C° 0 mm 1 mps 744 mmHg 86%
    23:00 +6°C° 0 mm 1 mps 745 mmHg 85%
    Show more